Weather History for Pagosa Springs, CO

Change the Weather History Date:

Wednesday, December 26, 2012

  Actual Average (KDRO) Record (KDRO)
Temperature  
Mean Temperature 18 °F 24 °F  
Max Temperature 30 °F 38 °F 64 °F (1996)
Min Temperature 7 °F 11 °F -9 °F (1990)
Degree Days  
Heating Degree Days 46 41  
Month to date heating degree days 996  
Since 1 July heating degree days 2669  
Cooling Degree Days 0 0  
Month to date cooling degree days 0  
Year to date cooling degree days 243  
Moisture  
Dew Point 14 °F    
Average Humidity 72    
Maximum Humidity 96    
Minimum Humidity 42    
Precipitation  
Precipitation 0.00 in 0.05 in 0.80 in (1979)
Month to date precipitation 0.89  
Year to date precipitation 15.79  
Sea Level Pressure  
Sea Level Pressure 29.85 in    
Wind  
Wind Speed 1 mph (SW)    
Max Wind Speed 8 mph    
Max Gust Speed -    
Visibility 9 miles    
Events Snow    
T = Trace of Precipitation, MM = Missing Value Source: NWS Daily Summary

Daily Weather History Graph

Daily Weather History Graph

Search for Another Location

Airport:

Trip Planner

Search our weather history database for the weather conditions in past years. The results will help you decide how hot, cold, wet, or windy it might be!

Date:

Astronomy

Dec. 26, 2012 Rise Set
Actual Time 7:20 AM MST 4:57 PM MST
Civil Twilight 6:51 AM MST 5:26 PM MST
Nautical Twilight 6:19 AM MST 5:59 PM MST
Astronomical Twilight 5:47 AM MST 6:31 PM MST
Moon 3:52 PM MST (12/26) 5:47 AM MST (12/26)
Length of Visible Light 10h 34m
Length of Day
9h 36m
Waxing Gibbous, 98% of the Moon is Illuminated
Dec 26
Waxing Gibbous
Dec 28
Full
Jan 4
Last Quarter
Jan 11
New
Jan 18
First Quarter

Hourly Weather History & Observations

Time (MST) Temp. Windchill Dew Point Humidity Pressure Visibility Wind Dir Wind Speed Gust Speed Precip Events Conditions
12:15 AM 7.2 °F - 4.3 °F 88% 30.00 in 10.0 mi Calm Calm - N/A   Clear
12:35 AM 10.0 °F - 7.5 °F 90% 29.99 in 10.0 mi Calm Calm - N/A   Clear
12:55 AM 7.9 °F - 4.6 °F 87% 29.99 in 10.0 mi Calm Calm - N/A   Clear
1:15 AM 7.7 °F - 5.7 °F 92% 30.00 in 10.0 mi Calm Calm - N/A   Clear
1:35 AM 7.5 °F - 5.7 °F 92% 30.01 in 10.0 mi Calm Calm - N/A   Clear
1:55 AM 8.4 °F - 5.5 °F 88% 30.02 in 10.0 mi Calm Calm - N/A   Clear
2:15 AM 7.5 °F - 4.6 °F 88% 30.02 in 10.0 mi Calm Calm - N/A   Clear
2:35 AM - - - N/A% 30.00 in 10.0 mi Calm Calm - N/A   Clear
2:55 AM - - - N/A% 29.99 in 10.0 mi Calm Calm - N/A   Clear
3:15 AM - - - N/A% 29.98 in 10.0 mi Calm Calm - N/A   Clear
3:35 AM - - - N/A% 29.98 in 10.0 mi Calm Calm - N/A   Mostly Cloudy
3:55 AM - - - N/A% 29.97 in 10.0 mi Calm Calm - N/A   Overcast
4:15 AM - - - N/A% 29.97 in 10.0 mi Calm Calm - N/A   Overcast
4:35 AM - - - N/A% 29.95 in 10.0 mi NE 3.5 mph - N/A   Overcast
4:55 AM - - - N/A% 29.94 in 10.0 mi Calm Calm - N/A   Overcast
5:15 AM - - - N/A% 29.95 in 10.0 mi West 3.5 mph - N/A   Mostly Cloudy
5:35 AM - - - N/A% 29.94 in 10.0 mi Calm Calm - N/A   Mostly Cloudy
5:55 AM - - - N/A% 29.94 in 10.0 mi Calm Calm - N/A   Mostly Cloudy
6:15 AM - - - N/A% 29.94 in 10.0 mi Calm Calm - N/A   Overcast
6:35 AM - - - N/A% 29.94 in 10.0 mi Calm Calm - N/A   Overcast
6:55 AM - - - N/A% 29.95 in 10.0 mi Calm Calm - N/A   Overcast
7:15 AM - - - N/A% 29.95 in 10.0 mi Calm Calm - N/A   Overcast
7:35 AM - - - N/A% 29.95 in 10.0 mi Calm Calm - N/A   Overcast
7:55 AM - - - N/A% 29.95 in 7.0 mi Calm Calm - N/A   Overcast
8:15 AM - - - N/A% 29.94 in 10.0 mi Calm Calm - N/A   Overcast
8:35 AM - - - N/A% 29.93 in 10.0 mi Calm Calm - N/A   Overcast
8:55 AM - - - N/A% 29.93 in 10.0 mi Calm Calm - N/A   Overcast
9:15 AM - - - N/A% 29.91 in 10.0 mi Calm Calm - N/A   Overcast
9:35 AM 18.9 °F 13.7 °F 17.4 °F 94% 29.93 in 10.0 mi SSW 3.5 mph - N/A   Overcast
9:55 AM 19.8 °F 14.7 °F 17.6 °F 91% 29.93 in 10.0 mi West 3.5 mph - N/A   Overcast
10:15 AM 21.2 °F - 16.7 °F 83% 29.93 in 10.0 mi Calm Calm - N/A   Overcast
10:35 AM 23.7 °F - 15.1 °F 70% 29.92 in 10.0 mi Calm Calm - N/A   Overcast
10:55 AM 24.6 °F - 16.0 °F 70% 29.92 in 10.0 mi Calm Calm - N/A   Overcast
11:15 AM 23.9 °F - 16.2 °F 72% 29.91 in 10.0 mi Calm Calm - N/A   Overcast
11:35 AM 26.2 °F - 15.3 °F 63% 29.88 in 10.0 mi Calm Calm - N/A   Overcast
11:55 AM 27.1 °F - 14.9 °F 60% 29.85 in 10.0 mi Calm Calm - N/A   Overcast
12:15 PM 27.9 °F - 10.9 °F 49% 29.84 in 10.0 mi Calm Calm - N/A   Overcast
12:35 PM 28.4 °F - 12.0 °F 50% 29.83 in 10.0 mi Calm Calm - N/A Snow Light Snow
12:55 PM 28.2 °F - 12.2 °F 51% 29.82 in 10.0 mi Calm Calm - N/A Snow Light Snow
1:15 PM 28.4 °F 24.6 °F 12.4 °F 51% 29.82 in 10.0 mi South 3.5 mph - N/A   Overcast
1:35 PM 28.8 °F - 12.6 °F 51% 29.79 in 10.0 mi Calm Calm - N/A   Overcast
1:55 PM 29.8 °F - 10.6 °F 45% 29.78 in 10.0 mi Calm Calm - N/A   Overcast
2:15 PM 29.5 °F - 9.1 °F 43% 29.77 in 10.0 mi Calm Calm - N/A   Overcast
2:35 PM 30.0 °F 26.5 °F 9.5 °F 42% 29.76 in 10.0 mi East 3.5 mph - N/A   Overcast
2:55 PM 29.5 °F - 10.9 °F 46% 29.76 in 10.0 mi Calm Calm - N/A   Overcast
3:15 PM 29.5 °F - 10.4 °F 45% 29.75 in 10.0 mi Calm Calm - N/A   Overcast
3:35 PM 29.3 °F - 9.5 °F 44% 29.75 in 10.0 mi Calm Calm - N/A   Overcast
3:55 PM 29.3 °F - 9.5 °F 44% 29.75 in 10.0 mi Calm Calm - N/A   Overcast
4:15 PM 29.1 °F - 10.6 °F 46% 29.73 in 10.0 mi Calm Calm - N/A   Overcast
4:35 PM 28.2 °F - 12.0 °F 51% 29.73 in 10.0 mi Calm Calm - N/A   Overcast
4:55 PM 27.3 °F - 13.8 °F 57% 29.71 in 10.0 mi Calm Calm - N/A   Overcast
5:15 PM 28.4 °F 23.3 °F 13.6 °F 54% 29.72 in 10.0 mi SSW 4.6 mph - N/A   Overcast
5:35 PM 28.2 °F 24.4 °F 13.6 °F 54% 29.72 in 10.0 mi West 3.5 mph - N/A   Overcast
6:15 PM 27.3 °F 20.9 °F 15.3 °F 61% 29.73 in 10.0 mi WNW 5.8 mph - N/A Snow Light Snow
6:35 PM 27.3 °F 19.1 °F 17.2 °F 66% 29.73 in 7.0 mi West 8.1 mph - N/A Snow Light Snow
6:55 PM 26.6 °F 20.0 °F 18.1 °F 70% 29.73 in 10.0 mi WNW 5.8 mph - N/A   Overcast
7:15 PM 25.7 °F 21.5 °F 19.0 °F 76% 29.73 in 10.0 mi WNW 3.5 mph - N/A   Overcast
7:55 PM 24.4 °F 20.1 °F 20.8 °F 86% 29.71 in 4.0 mi WNW 3.5 mph - N/A Snow Light Snow
8:15 PM 23.9 °F - 21.6 °F 91% 29.71 in 5.0 mi Calm Calm - N/A Snow Light Snow
8:35 PM 23.9 °F - 21.7 °F 91% 29.70 in 10.0 mi Calm Calm - N/A   Overcast
8:55 PM 21.9 °F - 19.4 °F 90% 29.70 in 10.0 mi Calm Calm - N/A   Overcast
9:35 PM 22.5 °F - 21.0 °F 94% 29.70 in 10.0 mi Calm Calm - N/A   Overcast
9:55 PM 23.9 °F 19.5 °F 22.6 °F 95% 29.71 in 10.0 mi SSE 3.5 mph - N/A   Overcast
10:15 PM 23.9 °F 18.0 °F 23.0 °F 96% 29.71 in 10.0 mi SSE 4.6 mph - N/A Snow Light Snow
10:35 PM 24.3 °F 18.4 °F 22.6 °F 94% 29.70 in 2.0 mi South 4.6 mph - N/A Snow Light Snow
10:55 PM 23.9 °F 19.5 °F 22.3 °F 94% 29.70 in 3.0 mi SE 3.5 mph - N/A Snow Light Snow
11:15 PM 23.9 °F - 22.6 °F 95% 29.71 in 4.0 mi Calm Calm - N/A Snow Light Snow
11:35 PM 23.7 °F 19.3 °F 22.6 °F 96% 29.71 in 4.0 mi East 3.5 mph - N/A Snow Light Snow
11:55 PM 23.7 °F - 22.5 °F 95% 29.71 in 10.0 mi Calm Calm - N/A Snow Light Snow